Time,TemperatureF,DewpointF,PressureIn,WindDirection,WindDirectionDegrees,WindSpeedMPH,WindSpeedGustMPH,Humidity,HourlyPrecipIn,Conditions,Clouds,dailyrainin,SolarRadiationWatts/m^2,SoftwareType,DateUTC
2013-02-04 00:00:00,24.0,17.8,29.38,East,90,2.0,10.0,77,0.00,,,0.00,0000,Weather View 32 v70,2013-02-04 05:00:00,
2013-02-04 00:03:00,23.9,17.7,29.38,East,96,5.0,10.0,77,0.00,,,0.00,0000,Weather View 32 v70,2013-02-04 05:03:00,
2013-02-04 00:08:00,24.0,17.8,29.38,East,90,7.0,10.0,77,0.00,,,0.00,0000,Weather View 32 v70,2013-02-04 05:08:00,
2013-02-04 00:13:00,24.0,18.1,29.38,East,90,6.0,10.0,78,0.00,,,0.00,0000,Weather View 32 v70,2013-02-04 05:13:00,
2013-02-04 00:18:00,24.1,18.2,29.38,East,90,5.0,10.0,78,0.00,,,0.00,0000,Weather View 32 v70,2013-02-04 05:18:00,
2013-02-04 00:23:00,24.0,18.1,29.38,East,90,4.0,10.0,78,0.00,,,0.00,0000,Weather View 32 v70,2013-02-04 05:23:00,
2013-02-04 00:28:00,24.0,18.4,29.38,East,90,6.0,11.0,79,0.00,,,0.00,0000,Weather View 32 v70,2013-02-04 05:28:00,
2013-02-04 00:33:00,23.8,18.2,29.38,East,90,7.0,11.0,79,0.00,,,0.00,0000,Weather View 32 v70,2013-02-04 05:33:00,
2013-02-04 00:38:00,23.7,18.4,29.38,East,90,5.0,11.0,80,0.00,,,0.00,0000,Weather View 32 v70,2013-02-04 05:38:00,
2013-02-04 00:43:00,23.7,18.7,29.38,East,90,6.0,11.0,81,0.00,,,0.00,0000,Weather View 32 v70,2013-02-04 05:43:00,
2013-02-04 00:48:00,23.7,18.7,29.38,East,96,7.0,11.0,81,0.00,,,0.00,0000,Weather View 32 v70,2013-02-04 05:48:00,
2013-02-04 00:53:00,23.8,18.8,29.38,East,90,5.0,11.0,81,0.00,,,0.00,0000,Weather View 32 v70,2013-02-04 05:53:00,
2013-02-04 00:58:00,23.8,18.8,29.38,East,90,5.0,11.0,81,0.00,,,0.00,0000,Weather View 32 v70,2013-02-04 05:58:00,
2013-02-04 01:03:00,23.9,18.9,29.38,East,90,7.0,11.0,81,0.00,,,0.00,0000,Weather View 32 v70,2013-02-04 06:03:00,
2013-02-04 01:08:00,24.0,19.3,29.38,East,90,7.0,13.0,82,0.00,,,0.00,0000,Weather View 32 v70,2013-02-04 06:08:00,
2013-02-04 01:13:00,24.1,19.4,29.38,East,96,11.0,14.0,82,0.00,,,0.00,0000,Weather View 32 v70,2013-02-04 06:13:00,
2013-02-04 01:18:00,24.1,19.7,29.38,East,90,7.0,14.0,83,0.00,,,0.00,0000,Weather View 32 v70,2013-02-04 06:18:00,
2013-02-04 01:23:00,24.3,19.9,29.38,East,90,12.0,14.0,83,0.00,,,0.00,0000,Weather View 32 v70,2013-02-04 06:23:00,
2013-02-04 01:28:00,24.4,20.0,29.38,East,96,8.0,14.0,83,0.00,,,0.00,0000,Weather View 32 v70,2013-02-04 06:28:00,
2013-02-04 01:33:00,24.3,19.9,29.38,East,90,12.0,14.0,83,0.00,,,0.00,0000,Weather View 32 v70,2013-02-04 06:33:00,
2013-02-04 01:38:00,24.2,20.1,29.38,East,90,7.0,14.0,84,0.00,,,0.00,0000,Weather View 32 v70,2013-02-04 06:38:00,
2013-02-04 01:43:00,24.2,20.1,29.38,East,90,9.0,14.0,84,0.00,,,0.00,0000,Weather View 32 v70,2013-02-04 06:43:00,
2013-02-04 01:48:00,24.4,20.6,29.39,East,90,6.0,14.0,85,0.00,,,0.00,0000,Weather View 32 v70,2013-02-04 06:48:00,
2013-02-04 01:53:00,24.4,20.0,29.39,East,96,9.0,14.0,83,0.00,,,0.00,0000,Weather View 32 v70,2013-02-04 06:53:00,
2013-02-04 01:58:00,24.7,19.4,29.39,East,96,5.0,14.0,80,0.00,,,0.00,0000,Weather View 32 v70,2013-02-04 06:58:00,
2013-02-04 02:03:00,24.9,18.4,29.39,East,96,8.0,17.0,76,0.00,,,0.00,0000,Weather View 32 v70,2013-02-04 07:03:00,
2013-02-04 02:08:00,24.9,17.8,29.38,ESE,107,13.0,17.0,74,0.00,,,0.00,0000,Weather View 32 v70,2013-02-04 07:08:00,
2013-02-04 02:13:00,25.2,16.1,29.38,East,96,12.0,20.0,68,0.00,,,0.00,0000,Weather View 32 v70,2013-02-04 07:13:00,
2013-02-04 02:18:00,25.0,15.6,29.39,East,90,7.0,21.0,67,0.00,,,0.00,0000,Weather View 32 v70,2013-02-04 07:18:00,
2013-02-04 02:23:00,25.0,15.2,29.39,East,96,9.0,21.0,66,0.00,,,0.00,0000,Weather View 32 v70,2013-02-04 07:23:00,
2013-02-04 02:28:00,24.9,15.1,29.40,East,96,6.0,21.0,66,0.00,,,0.00,0000,Weather View 32 v70,2013-02-04 07:28:00,
2013-02-04 02:33:00,24.8,15.0,29.39,East,90,9.0,23.0,66,0.00,,,0.00,0000,Weather View 32 v70,2013-02-04 07:33:00,
2013-02-04 02:38:00,24.7,14.9,29.39,ESE,107,11.0,23.0,66,0.00,,,0.00,0000,Weather View 32 v70,2013-02-04 07:38:00,
2013-02-04 02:43:00,24.7,14.6,29.39,East,101,7.0,25.0,65,0.00,,,0.00,0000,Weather View 32 v70,2013-02-04 07:43:00,
2013-02-04 02:48:00,24.6,14.1,29.39,ESE,107,18.0,25.0,64,0.00,,,0.00,0000,Weather View 32 v70,2013-02-04 07:48:00,
2013-02-04 02:53:00,24.4,14.4,29.39,East,90,13.0,25.0,65,0.00,,,0.00,0000,Weather View 32 v70,2013-02-04 07:53:00,
2013-02-04 02:58:00,24.3,14.2,29.39,East,96,9.0,25.0,65,0.00,,,0.00,0000,Weather View 32 v70,2013-02-04 07:58:00,
2013-02-04 03:03:00,24.3,14.2,29.40,East,101,10.0,25.0,65,0.00,,,0.00,0000,Weather View 32 v70,2013-02-04 08:03:00,
2013-02-04 03:08:00,24.1,14.0,29.39,East,96,12.0,25.0,65,0.00,,,0.00,0000,Weather View 32 v70,2013-02-04 08:08:00,
2013-02-04 03:13:00,24.1,13.7,29.40,East,90,10.0,25.0,64,0.00,,,0.00,0000,Weather View 32 v70,2013-02-04 08:13:00,
2013-02-04 03:18:00,24.2,13.4,29.40,ESE,107,11.0,25.0,63,0.00,,,0.00,0000,Weather View 32 v70,2013-02-04 08:18:00,
2013-02-04 03:23:00,24.1,13.0,29.40,East,90,12.0,25.0,62,0.00,,,0.00,0000,Weather View 32 v70,2013-02-04 08:23:00,
2013-02-04 03:28:00,24.1,12.6,29.40,SE,124,20.0,27.0,61,0.00,,,0.00,0000,Weather View 32 v70,2013-02-04 08:28:00,
2013-02-04 03:33:00,24.0,12.1,29.40,East,90,8.0,27.0,60,0.00,,,0.00,0000,Weather View 32 v70,2013-02-04 08:33:00,
2013-02-04 03:38:00,24.0,11.7,29.40,ESE,113,12.0,27.0,59,0.00,,,0.00,0000,Weather View 32 v70,2013-02-04 08:38:00,
2013-02-04 03:43:00,24.0,12.1,29.41,East,96,6.0,27.0,60,0.00,,,0.00,0000,Weather View 32 v70,2013-02-04 08:43:00,
2013-02-04 03:48:00,23.8,11.5,29.41,East,101,12.0,27.0,59,0.00,,,0.00,0000,Weather View 32 v70,2013-02-04 08:48:00,
2013-02-04 03:53:00,23.7,11.8,29.42,ESE,107,13.0,27.0,60,0.00,,,0.00,0000,Weather View 32 v70,2013-02-04 08:53:00,
2013-02-04 03:58:00,23.4,11.6,29.42,East,96,5.0,27.0,60,0.00,,,0.00,0000,Weather View 32 v70,2013-02-04 08:58:00,
2013-02-04 04:03:00,23.5,11.7,29.43,East,101,13.0,27.0,60,0.00,,,0.00,0000,Weather View 32 v70,2013-02-04 09:03:00,
2013-02-04 04:08:00,23.5,11.7,29.43,East,101,14.0,27.0,60,0.00,,,0.00,0000,Weather View 32 v70,2013-02-04 09:08:00,
2013-02-04 04:13:00,23.3,11.1,29.42,East,101,8.0,27.0,59,0.00,,,0.00,0000,Weather View 32 v70,2013-02-04 09:13:00,
2013-02-04 04:18:00,23.3,11.5,29.43,East,101,9.0,27.0,60,0.00,,,0.00,0000,Weather View 32 v70,2013-02-04 09:18:00,
2013-02-04 04:23:00,23.2,11.4,29.43,East,96,17.0,27.0,60,0.00,,,0.00,0000,Weather View 32 v70,2013-02-04 09:23:00,
2013-02-04 04:28:00,23.1,11.3,29.44,East,101,9.0,27.0,60,0.00,,,0.00,0000,Weather View 32 v70,2013-02-04 09:28:00,
2013-02-04 04:33:00,23.1,11.3,29.44,East,101,14.0,23.0,60,0.00,,,0.00,0000,Weather View 32 v70,2013-02-04 09:33:00,
2013-02-04 04:38:00,23.0,11.2,29.44,East,96,7.0,23.0,60,0.00,,,0.00,0000,Weather View 32 v70,2013-02-04 09:38:00,
2013-02-04 04:43:00,22.9,11.0,29.44,East,96,12.0,23.0,60,0.00,,,0.00,0000,Weather View 32 v70,2013-02-04 09:43:00,
2013-02-04 04:48:00,23.0,10.4,29.44,East,96,8.0,23.0,58,0.00,,,0.00,0000,Weather View 32 v70,2013-02-04 09:48:00,
2013-02-04 04:53:00,22.8,10.2,29.45,East,101,15.0,23.0,58,0.00,,,0.00,0000,Weather View 32 v70,2013-02-04 09:53:00,
2013-02-04 04:58:00,22.9,10.3,29.44,SE,146,22.0,26.0,58,0.00,,,0.00,0000,Weather View 32 v70,2013-02-04 09:58:00,
2013-02-04 05:03:00,22.8,9.4,29.45,East,101,8.0,26.0,56,0.00,,,0.00,0000,Weather View 32 v70,2013-02-04 10:03:00,
2013-02-04 05:08:00,22.6,8.9,29.45,East,96,12.0,27.0,55,0.00,,,0.00,0000,Weather View 32 v70,2013-02-04 10:08:00,
2013-02-04 05:13:00,22.5,9.2,29.45,East,101,12.0,27.0,56,0.00,,,0.00,0000,Weather View 32 v70,2013-02-04 10:13:00,
2013-02-04 05:18:00,22.5,8.8,29.45,East,96,4.0,27.0,55,0.00,,,0.00,0000,Weather View 32 v70,2013-02-04 10:18:00,
2013-02-04 05:23:00,22.4,9.1,29.46,ESE,107,11.0,27.0,56,0.00,,,0.00,0000,Weather View 32 v70,2013-02-04 10:23:00,
2013-02-04 05:28:00,22.3,9.0,29.46,East,96,6.0,27.0,56,0.00,,,0.00,0000,Weather View 32 v70,2013-02-04 10:28:00,
2013-02-04 05:33:00,22.3,9.0,29.46,East,101,6.0,27.0,56,0.00,,,0.00,0000,Weather View 32 v70,2013-02-04 10:33:00,
2013-02-04 05:38:00,22.2,9.6,29.46,East,96,7.0,27.0,58,0.00,,,0.00,0000,Weather View 32 v70,2013-02-04 10:38:00,
2013-02-04 05:43:00,22.1,8.4,29.47,East,96,12.0,27.0,55,0.00,,,0.00,0000,Weather View 32 v70,2013-02-04 10:43:00,
2013-02-04 05:48:00,22.1,8.4,29.47,East,96,6.0,27.0,55,0.00,,,0.00,0000,Weather View 32 v70,2013-02-04 10:48:00,
2013-02-04 05:53:00,22.2,8.5,29.47,East,101,14.0,27.0,55,0.00,,,0.00,0000,Weather View 32 v70,2013-02-04 10:53:00,
2013-02-04 05:58:00,22.2,7.6,29.47,East,96,4.0,27.0,53,0.00,,,0.00,0000,Weather View 32 v70,2013-02-04 10:58:00,
2013-02-04 06:03:00,22.1,8.0,29.47,ESE,113,13.0,27.0,54,0.00,,,0.00,0000,Weather View 32 v70,2013-02-04 11:03:00,
2013-02-04 06:08:00,21.9,7.8,29.48,East,101,9.0,24.0,54,0.00,,,0.00,0000,Weather View 32 v70,2013-02-04 11:08:00,
2013-02-04 06:13:00,22.1,7.1,29.48,East,101,9.0,24.0,52,0.00,,,0.00,0000,Weather View 32 v70,2013-02-04 11:13:00,
2013-02-04 06:18:00,21.9,7.3,29.48,East,96,7.0,25.0,53,0.00,,,0.00,0000,Weather View 32 v70,2013-02-04 11:18:00,
2013-02-04 06:23:00,22.1,7.5,29.48,ESE,107,10.0,26.0,53,0.00,,,0.00,0000,Weather View 32 v70,2013-02-04 11:23:00,
2013-02-04 06:28:00,22.0,7.0,29.48,SE,124,19.0,26.0,52,0.00,,,0.00,0000,Weather View 32 v70,2013-02-04 11:28:00,
2013-02-04 06:33:00,21.7,7.6,29.49,ESE,113,13.0,26.0,54,0.00,,,0.00,0000,Weather View 32 v70,2013-02-04 11:33:00,
2013-02-04 06:38:00,21.7,7.6,29.49,East,96,6.0,26.0,54,0.00,,,0.00,0000,Weather View 32 v70,2013-02-04 11:38:00,
2013-02-04 06:43:00,21.6,7.5,29.49,East,96,12.0,26.0,54,0.00,,,0.00,0000,Weather View 32 v70,2013-02-04 11:43:00,
2013-02-04 06:48:00,21.6,7.5,29.50,East,96,11.0,26.0,54,0.00,,,0.00,0000,Weather View 32 v70,2013-02-04 11:48:00,
2013-02-04 06:53:00,21.5,7.4,29.49,ESE,113,14.0,26.0,54,0.00,,,0.00,0000,Weather View 32 v70,2013-02-04 11:53:00,
2013-02-04 06:58:00,21.5,7.4,29.50,ESE,118,15.0,26.0,54,0.00,,,0.00,0000,Weather View 32 v70,2013-02-04 11:58:00,
2013-02-04 07:03:00,21.7,7.2,29.49,East,101,9.0,26.0,53,0.00,,,0.00,0000,Weather View 32 v70,2013-02-04 12:03:00,
2013-02-04 07:09:00,21.9,7.3,29.50,ESE,107,8.0,26.0,53,0.00,,,0.00,0008,Weather View 32 v70,2013-02-04 12:09:00,
2013-02-04 07:14:00,22.0,7.4,29.50,East,96,7.0,26.0,53,0.00,,,0.00,0024,Weather View 32 v70,2013-02-04 12:14:00,
2013-02-04 07:19:00,22.2,9.3,29.50,East,101,7.0,26.0,57,0.00,,,0.00,0048,Weather View 32 v70,2013-02-04 12:19:00,
2013-02-04 07:24:00,22.2,7.2,29.50,ESE,107,9.0,25.0,52,0.00,,,0.00,0056,Weather View 32 v70,2013-02-04 12:24:00,
2013-02-04 07:29:00,22.2,7.6,29.50,East,90,6.0,20.0,53,0.00,,,0.00,0072,Weather View 32 v70,2013-02-04 12:29:00,
2013-02-04 07:34:00,22.6,9.3,29.50,East,90,5.0,20.0,56,0.00,,,0.00,0096,Weather View 32 v70,2013-02-04 12:34:00,
2013-02-04 07:39:00,23.1,8.5,29.50,East,90,5.0,20.0,53,0.00,,,0.00,0112,Weather View 32 v70,2013-02-04 12:39:00,
2013-02-04 07:44:00,22.8,8.2,29.50,East,101,8.0,20.0,53,0.00,,,0.00,0128,Weather View 32 v70,2013-02-04 12:44:00,
2013-02-04 07:49:00,22.9,8.3,29.50,East,96,10.0,20.0,53,0.00,,,0.00,0144,Weather View 32 v70,2013-02-04 12:49:00,
2013-02-04 07:54:00,23.4,8.8,29.50,East,96,3.0,20.0,53,0.00,,,0.00,0160,Weather View 32 v70,2013-02-04 12:54:00,
2013-02-04 07:59:00,23.3,8.7,29.50,East,101,3.0,20.0,53,0.00,,,0.00,0176,Weather View 32 v70,2013-02-04 12:59:00,
2013-02-04 08:04:00,23.5,8.9,29.50,East,96,8.0,20.0,53,0.00,,,0.00,0192,Weather View 32 v70,2013-02-04 13:04:00,
2013-02-04 08:09:00,24.4,9.3,29.50,East,96,5.0,19.0,52,0.00,,,0.00,0200,Weather View 32 v70,2013-02-04 13:09:00,
2013-02-04 08:14:00,23.9,8.8,29.50,East,96,9.0,19.0,52,0.00,,,0.00,0224,Weather View 32 v70,2013-02-04 13:14:00,
2013-02-04 08:19:00,24.2,9.1,29.50,East,90,4.0,18.0,52,0.00,,,0.00,0240,Weather View 32 v70,2013-02-04 13:19:00,
2013-02-04 08:24:00,24.4,8.9,29.51,East,101,9.0,17.0,51,0.00,,,0.00,0248,Weather View 32 v70,2013-02-04 13:24:00,
2013-02-04 08:29:00,24.9,8.9,29.50,East,101,7.0,15.0,50,0.00,,,0.00,0264,Weather View 32 v70,2013-02-04 13:29:00,
2013-02-04 08:34:00,24.8,8.8,29.50,East,96,3.0,15.0,50,0.00,,,0.00,0280,Weather View 32 v70,2013-02-04 13:34:00,
2013-02-04 08:39:00,24.8,8.3,29.51,East,101,10.0,17.0,49,0.00,,,0.00,0288,Weather View 32 v70,2013-02-04 13:39:00,
2013-02-04 08:44:00,24.9,8.4,29.50,East,96,7.0,17.0,49,0.00,,,0.00,0296,Weather View 32 v70,2013-02-04 13:44:00,
2013-02-04 08:49:00,26.6,10.4,29.50,East,96,4.0,17.0,50,0.00,,,0.00,0312,Weather View 32 v70,2013-02-04 13:49:00,
2013-02-04 08:54:00,26.1,8.6,29.51,East,96,5.0,18.0,47,0.00,,,0.00,0328,Weather View 32 v70,2013-02-04 13:54:00,
2013-02-04 08:59:00,25.6,7.6,29.50,East,101,10.0,18.0,46,0.00,,,0.00,0344,Weather View 32 v70,2013-02-04 13:59:00,
2013-02-04 09:04:00,25.8,7.8,29.50,East,96,8.0,21.0,46,0.00,,,0.00,0352,Weather View 32 v70,2013-02-04 14:04:00,
2013-02-04 09:09:00,27.0,10.8,29.50,East,90,2.0,21.0,50,0.00,,,0.00,0368,Weather View 32 v70,2013-02-04 14:09:00,
2013-02-04 09:14:00,25.9,7.5,29.50,East,101,11.0,21.0,45,0.00,,,0.00,0384,Weather View 32 v70,2013-02-04 14:14:00,
2013-02-04 09:19:00,25.7,7.3,29.50,East,101,13.0,21.0,45,0.00,,,0.00,0392,Weather View 32 v70,2013-02-04 14:19:00,
2013-02-04 09:24:00,25.2,6.8,29.50,East,96,6.0,22.0,45,0.00,,,0.00,0400,Weather View 32 v70,2013-02-04 14:24:00,
2013-02-04 09:29:00,25.5,6.6,29.49,ESE,107,17.0,22.0,44,0.00,,,0.00,0416,Weather View 32 v70,2013-02-04 14:29:00,
2013-02-04 09:34:00,25.5,6.6,29.50,East,101,11.0,22.0,44,0.00,,,0.00,0424,Weather View 32 v70,2013-02-04 14:34:00,
2013-02-04 09:39:00,26.1,8.2,29.50,ESE,113,14.0,22.0,46,0.00,,,0.00,0440,Weather View 32 v70,2013-02-04 14:39:00,
2013-02-04 09:44:00,25.8,6.9,29.50,ESE,107,10.0,22.0,44,0.00,,,0.00,0448,Weather View 32 v70,2013-02-04 14:44:00,
2013-02-04 09:49:00,27.1,8.6,29.50,East,90,4.0,22.0,45,0.00,,,0.00,0464,Weather View 32 v70,2013-02-04 14:49:00,
2013-02-04 09:54:00,26.2,7.8,29.50,East,96,5.0,22.0,45,0.00,,,0.00,0472,Weather View 32 v70,2013-02-04 14:54:00,
2013-02-04 09:59:00,26.2,6.2,29.50,ESE,107,10.0,22.0,42,0.00,,,0.00,0480,Weather View 32 v70,2013-02-04 14:59:00,
2013-02-04 10:04:00,26.5,7.5,29.50,ESE,118,10.0,22.0,44,0.00,,,0.00,0480,Weather View 32 v70,2013-02-04 15:04:00,
2013-02-04 10:09:00,26.0,6.6,29.49,East,96,6.0,24.0,43,0.00,,,0.00,0496,Weather View 32 v70,2013-02-04 15:09:00,
2013-02-04 10:14:00,27.0,9.9,29.50,East,96,6.0,24.0,48,0.00,,,0.00,0496,Weather View 32 v70,2013-02-04 15:14:00,
2013-02-04 10:19:00,27.7,7.6,29.50,ESE,113,12.0,24.0,42,0.00,,,0.00,0512,Weather View 32 v70,2013-02-04 15:19:00,
2013-02-04 10:24:00,29.3,9.0,29.50,East,90,4.0,24.0,42,0.00,,,0.00,0520,Weather View 32 v70,2013-02-04 15:24:00,
2013-02-04 10:29:00,27.0,9.9,29.49,East,101,7.0,24.0,48,0.00,,,0.00,0528,Weather View 32 v70,2013-02-04 15:29:00,
2013-02-04 10:34:00,28.0,8.4,29.49,East,101,24.0,24.0,43,0.00,,,0.00,0536,Weather View 32 v70,2013-02-04 15:34:00,
2013-02-04 10:39:00,26.7,6.1,29.49,East,96,6.0,24.0,41,0.00,,,0.00,0536,Weather View 32 v70,2013-02-04 15:39:00,
2013-02-04 10:44:00,27.0,6.4,29.49,East,96,13.0,24.0,41,0.00,,,0.00,0544,Weather View 32 v70,2013-02-04 15:44:00,
2013-02-04 10:49:00,26.9,6.3,29.49,ESE,107,16.0,24.0,41,0.00,,,0.00,0560,Weather View 32 v70,2013-02-04 15:49:00,
2013-02-04 10:54:00,28.0,7.9,29.49,East,96,6.0,24.0,42,0.00,,,0.00,0568,Weather View 32 v70,2013-02-04 15:54:00,
2013-02-04 10:59:00,27.3,7.2,29.49,East,96,5.0,24.0,42,0.00,,,0.00,0568,Weather View 32 v70,2013-02-04 15:59:00,
2013-02-04 11:04:00,27.8,7.1,29.49,East,96,12.0,24.0,41,0.00,,,0.00,0568,Weather View 32 v70,2013-02-04 16:04:00,
2013-02-04 11:09:00,27.3,6.6,29.48,East,96,13.0,24.0,41,0.00,,,0.00,0576,Weather View 32 v70,2013-02-04 16:09:00,
2013-02-04 11:14:00,27.4,6.2,29.48,East,96,6.0,24.0,40,0.00,,,0.00,0576,Weather View 32 v70,2013-02-04 16:14:00,
2013-02-04 11:19:00,27.7,6.5,29.48,East,96,10.0,24.0,40,0.00,,,0.00,0600,Weather View 32 v70,2013-02-04 16:19:00,
2013-02-04 11:24:00,28.9,9.2,29.49,East,96,8.0,24.0,43,0.00,,,0.00,0632,Weather View 32 v70,2013-02-04 16:24:00,
2013-02-04 11:29:00,28.5,7.2,29.49,East,101,14.0,24.0,40,0.00,,,0.00,0512,Weather View 32 v70,2013-02-04 16:29:00,
2013-02-04 11:34:00,27.3,6.1,29.48,East,101,16.0,24.0,40,0.00,,,0.00,0656,Weather View 32 v70,2013-02-04 16:34:00,
2013-02-04 11:39:00,26.6,6.0,29.48,ESE,107,13.0,24.0,41,0.00,,,0.00,0216,Weather View 32 v70,2013-02-04 16:39:00,
2013-02-04 11:44:00,28.6,7.3,29.48,East,96,10.0,24.0,40,0.00,,,0.00,0616,Weather View 32 v70,2013-02-04 16:44:00,
2013-02-04 11:49:00,28.4,6.6,29.48,East,101,13.0,24.0,39,0.00,,,0.00,0656,Weather View 32 v70,2013-02-04 16:49:00,
2013-02-04 11:54:00,28.3,7.5,29.47,East,90,5.0,24.0,41,0.00,,,0.00,0592,Weather View 32 v70,2013-02-04 16:54:00,
2013-02-04 11:59:00,28.4,6.6,29.47,East,101,11.0,24.0,39,0.00,,,0.00,0656,Weather View 32 v70,2013-02-04 16:59:00,
2013-02-04 12:04:00,28.7,8.0,29.47,East,101,10.0,24.0,41,0.00,,,0.00,0608,Weather View 32 v70,2013-02-04 17:04:00,
2013-02-04 12:09:00,27.8,6.6,29.46,East,96,14.0,24.0,40,0.00,,,0.00,0160,Weather View 32 v70,2013-02-04 17:09:00,
2013-02-04 12:14:00,28.9,7.6,29.47,East,101,8.0,24.0,40,0.00,,,0.00,0640,Weather View 32 v70,2013-02-04 17:14:00,
2013-02-04 12:19:00,27.9,6.7,29.46,East,90,11.0,24.0,40,0.00,,,0.00,0688,Weather View 32 v70,2013-02-04 17:19:00,
2013-02-04 12:24:00,28.9,7.1,29.48,East,90,9.0,24.0,39,0.00,,,0.00,0496,Weather View 32 v70,2013-02-04 17:24:00,
2013-02-04 12:29:00,27.6,5.8,29.47,East,96,8.0,24.0,39,0.00,,,0.00,0216,Weather View 32 v70,2013-02-04 17:29:00,
2013-02-04 12:34:00,27.6,5.3,29.46,East,96,18.0,24.0,38,0.00,,,0.00,0192,Weather View 32 v70,2013-02-04 17:34:00,
2013-02-04 12:39:00,27.3,5.0,29.47,East,101,9.0,23.0,38,0.00,,,0.00,0160,Weather View 32 v70,2013-02-04 17:39:00,
2013-02-04 12:44:00,27.0,4.8,29.48,East,96,14.0,24.0,38,0.00,,,0.00,0184,Weather View 32 v70,2013-02-04 17:44:00,
2013-02-04 12:49:00,27.1,5.4,29.47,East,96,12.0,24.0,39,0.00,,,0.00,0168,Weather View 32 v70,2013-02-04 17:49:00,
2013-02-04 12:54:00,27.4,6.2,29.47,East,101,13.0,24.0,40,0.00,,,0.00,0144,Weather View 32 v70,2013-02-04 17:54:00,
2013-02-04 12:59:00,27.4,5.6,29.48,East,96,11.0,24.0,39,0.00,,,0.00,0176,Weather View 32 v70,2013-02-04 17:59:00,
2013-02-04 13:04:00,27.7,6.5,29.48,East,96,8.0,24.0,40,0.00,,,0.00,0144,Weather View 32 v70,2013-02-04 18:04:00,
2013-02-04 13:09:00,27.3,7.2,29.48,East,96,12.0,24.0,42,0.00,,,0.00,0160,Weather View 32 v70,2013-02-04 18:09:00,
2013-02-04 13:14:00,26.9,6.9,29.48,East,96,14.0,24.0,42,0.00,,,0.00,0160,Weather View 32 v70,2013-02-04 18:14:00,
2013-02-04 13:19:00,26.9,6.3,29.47,East,90,10.0,24.0,41,0.00,,,0.00,0264,Weather View 32 v70,2013-02-04 18:19:00,
2013-02-04 13:24:00,27.9,6.2,29.47,East,96,5.0,24.0,39,0.00,,,0.00,0600,Weather View 32 v70,2013-02-04 18:24:00,
2013-02-04 13:29:00,28.0,6.8,29.47,East,90,6.0,24.0,40,0.00,,,0.00,0128,Weather View 32 v70,2013-02-04 18:29:00,
2013-02-04 13:34:00,27.4,5.1,29.47,East,96,11.0,24.0,38,0.00,,,0.00,0152,Weather View 32 v70,2013-02-04 18:34:00,
2013-02-04 13:39:00,28.2,5.8,29.47,East,90,13.0,24.0,38,0.00,,,0.00,0224,Weather View 32 v70,2013-02-04 18:39:00,
2013-02-04 13:44:00,27.1,6.0,29.47,East,101,10.0,24.0,40,0.00,,,0.00,0104,Weather View 32 v70,2013-02-04 18:44:00,
2013-02-04 13:49:00,27.3,6.1,29.48,East,101,8.0,24.0,40,0.00,,,0.00,0152,Weather View 32 v70,2013-02-04 18:49:00,
2013-02-04 13:54:00,27.8,7.1,29.48,East,96,6.0,24.0,41,0.00,,,0.00,0136,Weather View 32 v70,2013-02-04 18:54:00,
2013-02-04 13:59:00,27.0,5.9,29.48,East,90,10.0,23.0,40,0.00,,,0.00,0136,Weather View 32 v70,2013-02-04 18:59:00,
2013-02-04 14:04:00,26.8,6.2,29.47,East,96,14.0,28.0,41,0.00,,,0.00,0200,Weather View 32 v70,2013-02-04 19:04:00,
2013-02-04 14:09:00,27.3,6.6,29.47,East,96,13.0,28.0,41,0.00,,,0.00,0232,Weather View 32 v70,2013-02-04 19:09:00,
2013-02-04 14:14:00,27.4,6.2,29.46,East,90,14.0,28.0,40,0.00,,,0.00,0160,Weather View 32 v70,2013-02-04 19:14:00,
2013-02-04 14:19:00,27.5,6.8,29.47,East,96,9.0,28.0,41,0.00,,,0.00,0128,Weather View 32 v70,2013-02-04 19:19:00,
2013-02-04 14:24:00,27.8,6.6,29.48,East,96,5.0,28.0,40,0.00,,,0.00,0472,Weather View 32 v70,2013-02-04 19:24:00,
2013-02-04 14:29:00,27.0,5.9,29.47,East,101,18.0,28.0,40,0.00,,,0.00,0176,Weather View 32 v70,2013-02-04 19:29:00,
2013-02-04 14:34:00,27.8,7.1,29.47,East,90,10.0,28.0,41,0.00,,,0.00,0160,Weather View 32 v70,2013-02-04 19:34:00,
2013-02-04 14:39:00,28.6,6.2,29.46,East,96,10.0,28.0,38,0.00,,,0.00,0400,Weather View 32 v70,2013-02-04 19:39:00,
2013-02-04 14:44:00,28.8,6.4,29.46,East,96,11.0,28.0,38,0.00,,,0.00,0376,Weather View 32 v70,2013-02-04 19:44:00,
2013-02-04 14:49:00,28.6,6.2,29.46,East,96,10.0,28.0,38,0.00,,,0.00,0368,Weather View 32 v70,2013-02-04 19:49:00,
2013-02-04 14:54:00,28.3,5.9,29.45,East,96,14.0,28.0,38,0.00,,,0.00,0320,Weather View 32 v70,2013-02-04 19:54:00,
2013-02-04 14:59:00,29.2,6.7,29.46,East,96,3.0,28.0,38,0.00,,,0.00,0320,Weather View 32 v70,2013-02-04 19:59:00,
2013-02-04 15:04:00,28.7,6.3,29.45,ESE,113,9.0,27.0,38,0.00,,,0.00,0288,Weather View 32 v70,2013-02-04 20:04:00,
2013-02-04 15:09:00,28.5,6.1,29.45,East,101,7.0,27.0,38,0.00,,,0.00,0304,Weather View 32 v70,2013-02-04 20:09:00,
2013-02-04 15:14:00,28.4,6.0,29.46,East,90,13.0,27.0,38,0.00,,,0.00,0320,Weather View 32 v70,2013-02-04 20:14:00,
2013-02-04 15:19:00,29.1,7.2,29.46,East,96,6.0,27.0,39,0.00,,,0.00,0312,Weather View 32 v70,2013-02-04 20:19:00,
2013-02-04 15:24:00,29.2,6.7,29.46,East,96,7.0,27.0,38,0.00,,,0.00,0264,Weather View 32 v70,2013-02-04 20:24:00,
2013-02-04 15:29:00,27.8,5.5,29.46,East,96,13.0,22.0,38,0.00,,,0.00,0120,Weather View 32 v70,2013-02-04 20:29:00,
2013-02-04 15:34:00,28.3,6.4,29.46,East,90,16.0,22.0,39,0.00,,,0.00,0064,Weather View 32 v70,2013-02-04 20:34:00,
2013-02-04 15:39:00,27.6,6.4,29.47,East,101,11.0,22.0,40,0.00,,,0.00,0080,Weather View 32 v70,2013-02-04 20:39:00,
2013-02-04 15:44:00,28.3,6.4,29.47,East,96,17.0,22.0,39,0.00,,,0.00,0256,Weather View 32 v70,2013-02-04 20:44:00,
2013-02-04 15:49:00,28.4,6.6,29.47,East,96,13.0,22.0,39,0.00,,,0.00,0184,Weather View 32 v70,2013-02-04 20:49:00,
2013-02-04 15:54:00,28.4,6.0,29.47,East,101,10.0,22.0,38,0.00,,,0.00,0200,Weather View 32 v70,2013-02-04 20:54:00,
2013-02-04 15:59:00,28.8,6.4,29.47,East,90,12.0,22.0,38,0.00,,,0.00,0192,Weather View 32 v70,2013-02-04 20:59:00,
2013-02-04 16:04:00,28.7,6.3,29.46,East,101,10.0,22.0,38,0.00,,,0.00,0168,Weather View 32 v70,2013-02-04 21:04:00,
2013-02-04 16:09:00,28.8,6.4,29.47,East,96,10.0,22.0,38,0.00,,,0.00,0168,Weather View 32 v70,2013-02-04 21:09:00,
2013-02-04 16:14:00,28.8,6.4,29.47,East,90,10.0,20.0,38,0.00,,,0.00,0144,Weather View 32 v70,2013-02-04 21:14:00,
2013-02-04 16:19:00,28.4,6.0,29.47,ESE,107,22.0,22.0,38,0.00,,,0.00,0104,Weather View 32 v70,2013-02-04 21:19:00,
2013-02-04 16:24:00,28.7,6.3,29.47,East,96,8.0,22.0,38,0.00,,,0.00,0120,Weather View 32 v70,2013-02-04 21:24:00,
2013-02-04 16:29:00,28.5,6.1,29.48,East,96,14.0,22.0,38,0.00,,,0.00,0104,Weather View 32 v70,2013-02-04 21:29:00,
2013-02-04 16:34:00,28.2,5.8,29.48,East,90,11.0,22.0,38,0.00,,,0.00,0064,Weather View 32 v70,2013-02-04 21:34:00,
2013-02-04 16:39:00,28.6,6.2,29.48,East,96,6.0,22.0,38,0.00,,,0.00,0040,Weather View 32 v70,2013-02-04 21:39:00,
2013-02-04 16:44:00,28.5,6.7,29.48,East,90,9.0,22.0,39,0.00,,,0.00,0064,Weather View 32 v70,2013-02-04 21:44:00,
2013-02-04 16:49:00,28.4,6.0,29.48,East,90,4.0,22.0,38,0.00,,,0.00,0056,Weather View 32 v70,2013-02-04 21:49:00,
2013-02-04 16:54:00,28.3,5.9,29.48,East,90,10.0,22.0,38,0.00,,,0.00,0048,Weather View 32 v70,2013-02-04 21:54:00,
2013-02-04 16:59:00,28.0,6.2,29.48,East,96,11.0,22.0,39,0.00,,,0.00,0032,Weather View 32 v70,2013-02-04 21:59:00,
2013-02-04 17:04:00,27.8,6.0,29.48,East,90,7.0,22.0,39,0.00,,,0.00,0008,Weather View 32 v70,2013-02-04 22:04:00,
2013-02-04 17:09:00,27.6,6.4,29.49,East,90,5.0,22.0,40,0.00,,,0.00,0000,Weather View 32 v70,2013-02-04 22:09:00,
2013-02-04 17:14:00,27.5,6.3,29.49,East,90,8.0,22.0,40,0.00,,,0.00,0000,Weather View 32 v70,2013-02-04 22:14:00,
2013-02-04 17:19:00,27.3,6.1,29.49,East,96,12.0,22.0,40,0.00,,,0.00,0000,Weather View 32 v70,2013-02-04 22:19:00,
2013-02-04 17:24:00,27.1,6.5,29.50,East,96,11.0,17.0,41,0.00,,,0.00,0000,Weather View 32 v70,2013-02-04 22:24:00,
2013-02-04 17:29:00,26.9,6.3,29.49,East,90,7.0,20.0,41,0.00,,,0.00,0000,Weather View 32 v70,2013-02-04 22:29:00,
2013-02-04 17:34:00,27.0,6.4,29.50,East,90,8.0,20.0,41,0.00,,,0.00,0000,Weather View 32 v70,2013-02-04 22:34:00,
2013-02-04 17:39:00,27.0,6.4,29.50,East,96,14.0,20.0,41,0.00,,,0.00,0000,Weather View 32 v70,2013-02-04 22:39:00,
2013-02-04 17:44:00,26.9,6.3,29.51,East,90,6.0,20.0,41,0.00,,,0.00,0000,Weather View 32 v70,2013-02-04 22:44:00,
2013-02-04 17:49:00,26.8,6.2,29.51,East,96,10.0,20.0,41,0.00,,,0.00,0000,Weather View 32 v70,2013-02-04 22:49:00,
2013-02-04 17:54:00,26.8,6.2,29.52,East,90,8.0,20.0,41,0.00,,,0.00,0000,Weather View 32 v70,2013-02-04 22:54:00,
2013-02-04 17:59:00,26.7,6.7,29.51,East,96,10.0,20.0,42,0.00,,,0.00,0000,Weather View 32 v70,2013-02-04 22:59:00,
2013-02-04 18:04:00,26.7,6.7,29.52,East,96,5.0,20.0,42,0.00,,,0.00,0000,Weather View 32 v70,2013-02-04 23:04:00,
2013-02-04 18:09:00,26.7,6.7,29.52,East,96,7.0,20.0,42,0.00,,,0.00,0000,Weather View 32 v70,2013-02-04 23:09:00,
2013-02-04 18:14:00,26.6,6.6,29.51,East,90,11.0,20.0,42,0.00,,,0.00,0000,Weather View 32 v70,2013-02-04 23:14:00,
2013-02-04 18:19:00,26.7,6.7,29.52,East,90,10.0,20.0,42,0.00,,,0.00,0000,Weather View 32 v70,2013-02-04 23:19:00,
2013-02-04 18:24:00,26.7,6.7,29.52,East,96,5.0,20.0,42,0.00,,,0.00,0000,Weather View 32 v70,2013-02-04 23:24:00,
2013-02-04 18:29:00,26.7,6.7,29.52,East,96,4.0,19.0,42,0.00,,,0.00,0000,Weather View 32 v70,2013-02-04 23:29:00,
2013-02-04 18:34:00,26.7,7.2,29.52,East,96,9.0,19.0,43,0.00,,,0.00,0000,Weather View 32 v70,2013-02-04 23:34:00,
2013-02-04 18:39:00,26.7,7.2,29.53,East,96,4.0,18.0,43,0.00,,,0.00,0000,Weather View 32 v70,2013-02-04 23:39:00,
2013-02-04 18:44:00,26.7,7.2,29.52,East,90,9.0,16.0,43,0.00,,,0.00,0000,Weather View 32 v70,2013-02-04 23:44:00,
2013-02-04 18:49:00,26.7,7.2,29.53,East,96,7.0,16.0,43,0.00,,,0.00,0000,Weather View 32 v70,2013-02-04 23:49:00,
2013-02-04 18:54:00,26.7,7.2,29.53,East,96,7.0,17.0,43,0.00,,,0.00,0000,Weather View 32 v70,2013-02-04 23:54:00,
2013-02-04 18:59:00,26.6,7.1,29.53,East,90,8.0,17.0,43,0.00,,,0.00,0000,Weather View 32 v70,2013-02-04 23:59:00,
2013-02-04 19:04:00,26.6,7.1,29.53,East,90,7.0,17.0,43,0.00,,,0.00,0000,Weather View 32 v70,2013-02-05 00:04:00,
2013-02-04 19:09:00,26.7,7.2,29.53,East,96,4.0,17.0,43,0.00,,,0.00,0000,Weather View 32 v70,2013-02-05 00:09:00,
2013-02-04 19:14:00,26.5,7.5,29.53,East,90,5.0,17.0,44,0.00,,,0.00,0000,Weather View 32 v70,2013-02-05 00:14:00,
2013-02-04 19:19:00,26.6,7.1,29.53,East,90,4.0,17.0,43,0.00,,,0.00,0000,Weather View 32 v70,2013-02-05 00:19:00,
2013-02-04 19:24:00,26.5,7.5,29.53,East,96,5.0,17.0,44,0.00,,,0.00,0000,Weather View 32 v70,2013-02-05 00:24:00,
2013-02-04 19:29:00,26.5,7.5,29.53,East,96,5.0,17.0,44,0.00,,,0.00,0000,Weather View 32 v70,2013-02-05 00:29:00,
2013-02-04 19:34:00,26.5,7.0,29.53,East,90,4.0,17.0,43,0.00,,,0.00,0000,Weather View 32 v70,2013-02-05 00:34:00,
2013-02-04 19:39:00,26.5,7.5,29.53,East,96,6.0,17.0,44,0.00,,,0.00,0000,Weather View 32 v70,2013-02-05 00:39:00,
2013-02-04 19:44:00,26.5,7.5,29.54,East,96,4.0,17.0,44,0.00,,,0.00,0000,Weather View 32 v70,2013-02-05 00:44:00,
2013-02-04 19:49:00,26.4,7.9,29.54,East,90,6.0,17.0,45,0.00,,,0.00,0000,Weather View 32 v70,2013-02-05 00:49:00,
2013-02-04 19:54:00,26.4,7.9,29.54,East,90,4.0,16.0,45,0.00,,,0.00,0000,Weather View 32 v70,2013-02-05 00:54:00,
2013-02-04 19:59:00,26.4,7.9,29.54,East,90,6.0,16.0,45,0.00,,,0.00,0000,Weather View 32 v70,2013-02-05 00:59:00,
2013-02-04 20:04:00,26.5,8.0,29.54,East,96,4.0,16.0,45,0.00,,,0.00,0000,Weather View 32 v70,2013-02-05 01:04:00,
2013-02-04 20:09:00,26.2,7.8,29.54,East,90,3.0,16.0,45,0.00,,,0.00,0000,Weather View 32 v70,2013-02-05 01:09:00,
2013-02-04 20:14:00,26.4,7.9,29.53,East,90,7.0,12.0,45,0.00,,,0.00,0000,Weather View 32 v70,2013-02-05 01:14:00,
2013-02-04 20:19:00,26.2,7.8,29.53,East,96,7.0,12.0,45,0.00,,,0.00,0000,Weather View 32 v70,2013-02-05 01:19:00,
2013-02-04 20:24:00,26.4,7.9,29.53,East,90,7.0,12.0,45,0.00,,,0.00,0000,Weather View 32 v70,2013-02-05 01:24:00,
2013-02-04 20:29:00,26.2,8.3,29.54,East,90,4.0,12.0,46,0.00,,,0.00,0000,Weather View 32 v70,2013-02-05 01:29:00,
2013-02-04 20:34:00,26.1,8.2,29.54,East,90,3.0,12.0,46,0.00,,,0.00,0000,Weather View 32 v70,2013-02-05 01:34:00,
2013-02-04 20:39:00,26.2,8.3,29.53,East,90,5.0,12.0,46,0.00,,,0.00,0000,Weather View 32 v70,2013-02-05 01:39:00,
2013-02-04 20:44:00,26.2,8.3,29.54,East,96,7.0,12.0,46,0.00,,,0.00,0000,Weather View 32 v70,2013-02-05 01:44:00,
2013-02-04 20:49:00,26.1,8.2,29.54,East,90,5.0,12.0,46,0.00,,,0.00,0000,Weather View 32 v70,2013-02-05 01:49:00,
2013-02-04 20:54:00,26.1,8.2,29.54,East,90,5.0,12.0,46,0.00,,,0.00,0000,Weather View 32 v70,2013-02-05 01:54:00,
2013-02-04 20:59:00,26.0,8.5,29.55,East,90,6.0,12.0,47,0.00,,,0.00,0000,Weather View 32 v70,2013-02-05 01:59:00,
2013-02-04 21:04:00,25.8,8.3,29.54,East,96,4.0,12.0,47,0.00,,,0.00,0000,Weather View 32 v70,2013-02-05 02:04:00,
2013-02-04 21:09:00,25.8,8.3,29.54,East,90,2.0,12.0,47,0.00,,,0.00,0000,Weather View 32 v70,2013-02-05 02:09:00,
2013-02-04 21:14:00,25.8,8.3,29.54,East,90,3.0,10.0,47,0.00,,,0.00,0000,Weather View 32 v70,2013-02-05 02:14:00,
2013-02-04 21:19:00,25.9,8.4,29.54,East,96,7.0,10.0,47,0.00,,,0.00,0000,Weather View 32 v70,2013-02-05 02:19:00,
2013-02-04 21:24:00,25.9,8.4,29.54,East,96,5.0,10.0,47,0.00,,,0.00,0000,Weather View 32 v70,2013-02-05 02:24:00,
2013-02-04 21:29:00,26.0,8.5,29.54,East,96,5.0,10.0,47,0.00,,,0.00,0000,Weather View 32 v70,2013-02-05 02:29:00,
2013-02-04 21:34:00,25.9,8.9,29.54,East,90,5.0,10.0,48,0.00,,,0.00,0000,Weather View 32 v70,2013-02-05 02:34:00,
2013-02-04 21:39:00,26.0,9.0,29.54,East,90,8.0,10.0,48,0.00,,,0.00,0000,Weather View 32 v70,2013-02-05 02:39:00,
2013-02-04 21:44:00,25.9,8.9,29.55,East,96,3.0,9.0,48,0.00,,,0.00,0000,Weather View 32 v70,2013-02-05 02:44:00,
2013-02-04 21:49:00,26.0,9.0,29.54,East,90,6.0,9.0,48,0.00,,,0.00,0000,Weather View 32 v70,2013-02-05 02:49:00,
2013-02-04 21:54:00,25.9,8.9,29.54,East,90,4.0,9.0,48,0.00,,,0.00,0000,Weather View 32 v70,2013-02-05 02:54:00,
2013-02-04 21:59:00,25.9,8.9,29.54,East,90,5.0,9.0,48,0.00,,,0.00,0000,Weather View 32 v70,2013-02-05 02:59:00,
2013-02-04 22:04:00,25.9,9.4,29.54,East,96,3.0,9.0,49,0.00,,,0.00,0000,Weather View 32 v70,2013-02-05 03:04:00,
2013-02-04 22:09:00,26.0,9.0,29.54,East,90,5.0,9.0,48,0.00,,,0.00,0000,Weather View 32 v70,2013-02-05 03:09:00,
2013-02-04 22:14:00,25.9,8.9,29.54,East,96,6.0,9.0,48,0.00,,,0.00,0000,Weather View 32 v70,2013-02-05 03:14:00,
2013-02-04 22:19:00,25.9,8.9,29.53,East,96,3.0,9.0,48,0.00,,,0.00,0000,Weather View 32 v70,2013-02-05 03:19:00,
2013-02-04 22:24:00,25.9,9.4,29.54,East,96,3.0,9.0,49,0.00,,,0.00,0000,Weather View 32 v70,2013-02-05 03:24:00,
2013-02-04 22:29:00,25.8,9.2,29.54,East,96,5.0,9.0,49,0.00,,,0.00,0000,Weather View 32 v70,2013-02-05 03:29:00,
2013-02-04 22:34:00,25.9,9.4,29.54,East,90,3.0,9.0,49,0.00,,,0.00,0000,Weather View 32 v70,2013-02-05 03:34:00,
2013-02-04 22:39:00,25.8,9.2,29.54,East,90,2.0,9.0,49,0.00,,,0.00,0000,Weather View 32 v70,2013-02-05 03:39:00,
2013-02-04 22:44:00,25.9,9.4,29.53,East,96,4.0,8.0,49,0.00,,,0.00,0000,Weather View 32 v70,2013-02-05 03:44:00,
2013-02-04 22:49:00,25.9,9.4,29.54,East,96,2.0,8.0,49,0.00,,,0.00,0000,Weather View 32 v70,2013-02-05 03:49:00,
2013-02-04 22:54:00,25.9,9.4,29.54,East,90,4.0,8.0,49,0.00,,,0.00,0000,Weather View 32 v70,2013-02-05 03:54:00,
2013-02-04 22:59:00,25.8,9.7,29.54,East,90,2.0,8.0,50,0.00,,,0.00,0000,Weather View 32 v70,2013-02-05 03:59:00,
2013-02-04 23:04:00,26.0,9.4,29.53,East,96,3.0,8.0,49,0.00,,,0.00,0000,Weather View 32 v70,2013-02-05 04:04:00,
2013-02-04 23:09:00,25.9,9.4,29.53,East,90,3.0,44.0,49,0.00,,,0.00,0000,Weather View 32 v70,2013-02-05 04:09:00,
2013-02-04 23:14:00,25.9,9.8,29.54,East,96,2.0,44.0,50,0.00,,,0.00,0000,Weather View 32 v70,2013-02-05 04:14:00,
2013-02-04 23:19:00,25.9,9.8,29.54,East,96,3.0,44.0,50,0.00,,,0.00,0000,Weather View 32 v70,2013-02-05 04:19:00,
2013-02-04 23:24:00,26.1,10.0,29.54,East,96,2.0,44.0,50,0.00,,,0.00,0000,Weather View 32 v70,2013-02-05 04:24:00,
2013-02-04 23:29:00,26.4,10.2,29.53,East,90,2.0,44.0,50,0.00,,,0.00,0000,Weather View 32 v70,2013-02-05 04:29:00,
2013-02-04 23:34:00,26.8,10.2,29.53,East,96,3.0,44.0,49,0.00,,,0.00,0000,Weather View 32 v70,2013-02-05 04:34:00,
2013-02-04 23:39:00,26.6,10.4,29.53,East,90,2.0,44.0,50,0.00,,,0.00,0000,Weather View 32 v70,2013-02-05 04:39:00,
2013-02-04 23:44:00,26.4,10.2,29.53,East,90,2.0,44.0,50,0.00,,,0.00,0000,Weather View 32 v70,2013-02-05 04:44:00,
2013-02-04 23:49:00,26.1,10.0,29.53,East,96,2.0,44.0,50,0.00,,,0.00,0000,Weather View 32 v70,2013-02-05 04:49:00,
2013-02-04 23:54:00,26.1,10.0,29.54,East,90,3.0,44.0,50,0.00,,,0.00,0000,Weather View 32 v70,2013-02-05 04:54:00,
2013-02-04 23:59:00,26.5,10.3,29.53,East,90,3.0,44.0,50,0.00,,,0.00,0000,Weather View 32 v70,2013-02-05 04:59:00,